Weather History for Middletown, OH

Change the Weather History Date:

Monday, September 16, 2013

  Actual Average (KDAY) Record (KDAY)
Temperature  
Mean Temperature 64 °F 65 °F  
Max Temperature 72 °F 76 °F 99 °F (1897)
Min Temperature 55 °F 55 °F 38 °F (1902)
Degree Days  
Heating Degree Days 2 3  
Month to date heating degree days 23  
Since 1 July heating degree days 25  
Cooling Degree Days 0 3  
Month to date cooling degree days 71  
Year to date cooling degree days 853  
Growing Degree Days 14 (Base 50)    
Moisture  
Dew Point 52 °F    
Average Humidity 72    
Maximum Humidity 86    
Minimum Humidity 47    
Precipitation  
Precipitation 0.00 in 0.10 in 3.81 in (2005)
Month to date precipitation 1.79  
Year to date precipitation 30.10  
Snow  
Snow 0.00 in 0.00 in - ()
Month to date snowfall 0.0  
Since 1 July snowfall 0.0  
Since 1 September snowfall 0.0  
Snow Depth -    
Sea Level Pressure  
Sea Level Pressure 30.23 in    
Wind  
Wind Speed 5 mph (NNE)    
Max Wind Speed 12 mph    
Max Gust Speed 16 mph    
Visibility 9 miles    
Events Rain    
T = Trace of Precipitation, MM = Missing Value Source: NWS Daily Summary

Daily Weather History Graph

Daily Weather History Graph

Search for Another Location

Airport:

Trip Planner

Search our weather history database for the weather conditions in past years. The results will help you decide how hot, cold, wet, or windy it might be!

Date:

Astronomy

Sep. 16, 2013 Rise Set
Actual Time 7:19 AM EDT 7:44 PM EDT
Civil Twilight 6:52 AM EDT 8:10 PM EDT
Nautical Twilight 6:21 AM EDT 8:42 PM EDT
Astronomical Twilight 5:48 AM EDT 9:14 PM EDT
Moon 5:52 PM EDT (9/16) 4:05 AM EDT (9/16)
Length of Visible Light 13h 18m
Length of Day
12h 24m
Waxing Gibbous, 90% of the Moon is Illuminated
Sep 16
Waxing Gibbous
Sep 19
Full
Sep 26
Last Quarter
Oct 4
New
Oct 11
First Quarter

Hourly Weather History & Observations

Time (EDT) Temp. Dew Point Humidity Pressure Visibility Wind Dir Wind Speed Gust Speed Precip Events Conditions
12:15 AM 60.1 °F 53.8 °F 80% 30.12 in 10.0 mi NNE 9.2 mph - N/A   Overcast
12:35 AM 59.0 °F 52.7 °F 80% 30.13 in 10.0 mi NNE 8.1 mph - N/A   Overcast
12:55 AM 59.0 °F 53.1 °F 81% 30.12 in 10.0 mi NNE 8.1 mph - N/A   Overcast
1:15 AM 59.0 °F 53.1 °F 81% 30.12 in 10.0 mi ENE 11.5 mph - N/A   Overcast
1:35 AM 59.0 °F 53.1 °F 81% 30.13 in 10.0 mi NNE 6.9 mph - N/A   Overcast
1:55 AM 57.9 °F 52.5 °F 82% 30.14 in 10.0 mi NNE 5.8 mph - N/A   Overcast
2:15 AM 57.7 °F 52.7 °F 83% 30.14 in 10.0 mi North 3.5 mph - N/A Rain Light Rain
2:35 AM 57.7 °F 52.9 °F 84% 30.15 in 10.0 mi Calm Calm - N/A Rain Light Rain
2:55 AM 57.7 °F 53.1 °F 84% 30.15 in 7.0 mi NE 5.8 mph - N/A Rain Rain
3:15 AM 57.7 °F 53.1 °F 84% 30.15 in 10.0 mi Calm Calm - N/A   Overcast
3:35 AM 57.7 °F 53.2 °F 85% 30.14 in 7.0 mi NE 4.6 mph - N/A   Light Drizzle
3:55 AM 57.7 °F 53.6 °F 86% 30.15 in 5.0 mi Calm Calm - N/A Rain Rain
4:15 AM 57.7 °F 53.6 °F 86% 30.15 in 7.0 mi Calm Calm - N/A   Overcast
4:35 AM 57.7 °F 53.6 °F 86% 30.15 in 7.0 mi Calm Calm - N/A   Overcast
4:55 AM 57.7 °F 53.6 °F 86% 30.15 in 7.0 mi Calm Calm - N/A   Overcast
5:15 AM 57.7 °F 53.6 °F 86% 30.15 in 7.0 mi Calm Calm - N/A   Overcast
5:35 AM 57.7 °F 53.6 °F 86% 30.16 in 7.0 mi Calm Calm - N/A   Overcast
5:55 AM 57.7 °F 53.6 °F 86% 30.17 in 7.0 mi Calm Calm - N/A   Overcast
6:15 AM 57.7 °F 53.6 °F 86% 30.17 in 7.0 mi Calm Calm - N/A   Overcast
6:35 AM 57.7 °F 53.6 °F 86% 30.18 in 7.0 mi North 3.5 mph - N/A   Overcast
6:55 AM 57.7 °F 53.6 °F 86% 30.19 in 7.0 mi Calm Calm - N/A   Overcast
7:15 AM 57.7 °F 53.6 °F 86% 30.20 in 7.0 mi Calm Calm - N/A   Overcast
7:35 AM 57.7 °F 53.6 °F 86% 30.20 in 5.0 mi Calm Calm - N/A   Overcast
7:55 AM 57.7 °F 53.6 °F 86% 30.20 in 5.0 mi NNE 3.5 mph - N/A   Overcast
8:15 AM 58.1 °F 53.8 °F 86% 30.21 in 5.0 mi North 3.5 mph - N/A   Overcast
8:35 AM 58.3 °F 54.0 °F 86% 30.22 in 5.0 mi Calm Calm - N/A   Overcast
8:55 AM 58.6 °F 54.5 °F 86% 30.23 in 5.0 mi NNW 3.5 mph - N/A   Haze
9:15 AM 59.0 °F 54.5 °F 85% 30.23 in 5.0 mi NNE 4.6 mph - N/A   Haze
9:35 AM 59.0 °F 54.0 °F 83% 30.24 in 7.0 mi NNE 6.9 mph - N/A   Overcast
9:55 AM 60.1 °F 54.7 °F 82% 30.24 in 10.0 mi NNE 10.4 mph - N/A   Overcast
10:15 AM 60.1 °F 54.1 °F 81% 30.25 in 10.0 mi NNE 9.2 mph - N/A   Overcast
10:35 AM 60.4 °F 54.0 °F 79% 30.26 in 10.0 mi NE 6.9 mph - N/A   Overcast
10:55 AM 62.2 °F 54.0 °F 74% 30.26 in 10.0 mi NE 6.9 mph - N/A   Overcast
11:15 AM 62.6 °F 53.2 °F 71% 30.27 in 10.0 mi NE 8.1 mph - N/A   Overcast
11:35 AM 66.0 °F 55.0 °F 68% 30.27 in 10.0 mi NE 6.9 mph - N/A   Overcast
11:55 AM 66.9 °F 56.1 °F 68% 30.27 in 10.0 mi NNE 9.2 mph - N/A   Overcast
12:15 PM 67.3 °F 55.8 °F 66% 30.28 in 10.0 mi NNE 9.2 mph - N/A   Overcast
12:35 PM 67.6 °F 54.7 °F 63% 30.28 in 10.0 mi ENE 5.8 mph - N/A   Overcast
12:55 PM 67.6 °F 53.8 °F 61% 30.27 in 10.0 mi East 8.1 mph - N/A   Mostly Cloudy
1:15 PM 67.6 °F 52.7 °F 59% 30.28 in 10.0 mi NE 8.1 mph - N/A   Mostly Cloudy
1:35 PM 68.4 °F 52.3 °F 57% 30.28 in 10.0 mi Calm Calm - N/A   Mostly Cloudy
1:55 PM 67.6 °F 52.0 °F 57% 30.27 in 10.0 mi Calm Calm - N/A   Mostly Cloudy
2:15 PM 71.2 °F 52.7 °F 52% 30.27 in 10.0 mi ENE 9.2 mph - N/A   Scattered Clouds
2:35 PM 69.6 °F 50.7 °F 51% 30.27 in 10.0 mi NE 9.2 mph - N/A   Mostly Cloudy
2:55 PM 71.2 °F 50.2 °F 47% 30.27 in 10.0 mi ENE 5.8 mph - N/A   Overcast
3:15 PM 68.9 °F 49.5 °F 50% 30.27 in 10.0 mi NNE 5.8 mph - N/A   Overcast
3:35 PM 69.3 °F 50.9 °F 52% 30.26 in 10.0 mi NE 6.9 mph - N/A   Overcast
3:55 PM 68.9 °F 50.9 °F 53% 30.26 in 10.0 mi NE 10.4 mph 16.1 mph N/A   Mostly Cloudy
4:15 PM 72.7 °F 52.7 °F 49% 30.25 in 10.0 mi NNE 6.9 mph - N/A   Mostly Cloudy
4:35 PM 67.6 °F 50.5 °F 54% 30.25 in 10.0 mi NE 9.2 mph 16.1 mph N/A   Mostly Cloudy
4:55 PM 72.0 °F 52.3 °F 50% 30.25 in 10.0 mi NE 11.5 mph 16.1 mph N/A   Mostly Cloudy
5:15 PM 68.4 °F 49.5 °F 51% 30.26 in 10.0 mi NNE 9.2 mph - N/A   Scattered Clouds
5:35 PM 70.3 °F 49.6 °F 48% 30.26 in 10.0 mi NNE 8.1 mph - N/A   Scattered Clouds
5:55 PM 68.2 °F 48.4 °F 49% 30.26 in 10.0 mi North 8.1 mph - N/A   Scattered Clouds
6:15 PM 70.0 °F 49.1 °F 47% 30.26 in 10.0 mi NE 8.1 mph - N/A   Mostly Cloudy
6:35 PM 67.6 °F 48.4 °F 50% 30.26 in 10.0 mi NE 5.8 mph - N/A   Scattered Clouds
6:55 PM 67.6 °F 50.5 °F 54% 30.26 in 10.0 mi North 8.1 mph - N/A   Clear
7:15 PM 67.6 °F 50.9 °F 55% 30.26 in 10.0 mi NNE 6.9 mph - N/A   Scattered Clouds
7:35 PM 65.3 °F 49.3 °F 56% 30.26 in 10.0 mi North 4.6 mph - N/A   Scattered Clouds
7:55 PM 62.6 °F 50.0 °F 63% 30.26 in 10.0 mi North 3.5 mph - N/A   Clear
8:15 PM 60.1 °F 49.5 °F 68% 30.27 in 10.0 mi North 4.6 mph - N/A   Clear
8:35 PM 59.0 °F 49.3 °F 70% 30.27 in 10.0 mi Calm Calm - N/A   Clear
8:55 PM 59.0 °F 48.7 °F 69% 30.28 in 10.0 mi North 5.8 mph - N/A   Clear
9:15 PM 59.0 °F 49.1 °F 70% 30.28 in 10.0 mi North 6.9 mph - N/A   Clear
9:35 PM 58.1 °F 48.9 °F 71% 30.29 in 10.0 mi North 5.8 mph - N/A   Clear
9:55 PM 57.7 °F 49.1 °F 73% 30.29 in 10.0 mi North 4.6 mph - N/A   Clear
10:15 PM 57.7 °F 49.5 °F 74% 30.29 in 10.0 mi Calm Calm - N/A   Clear
10:35 PM 57.6 °F 50.0 °F 76% 30.30 in 10.0 mi North 3.5 mph - N/A   Clear
10:55 PM 55.4 °F 48.6 °F 78% 30.30 in 10.0 mi NNE 4.6 mph - N/A   Clear
11:15 PM 55.4 °F 48.4 °F 77% 30.30 in 10.0 mi NNE 5.8 mph - N/A   Clear
11:35 PM 55.4 °F 48.6 °F 78% 30.31 in 10.0 mi NNE 3.5 mph - N/A   Clear
11:55 PM 55.4 °F 48.6 °F 78% 30.32 in 10.0 mi NNE 6.9 mph - N/A   Clear